Location: Palmerston North
(40.3500°S, 175.6170°E)
Time: 02:22:33
(UTC+13:00)

Cosmos 1340 Rocket - Pass Details

Date: 24 January 2019
Orbit: 529 x 560 km, 81.2° (Epoch: 19 February)

Event Time Altitude Azimuth Distance (km) Brightness Sun altitude
Exits shadow 23:51:21 49° 183° (S) 709 3.6 -26.2°
Drops below altitude 10° 23:54:22 10° 173° (S) 1,827 6.2 -26.4°
Sets 23:56:34 0° 171° (S) 2,733 7.2 -26.6°
